Bilbao, Spain

12:31 PM CEST en Septiembre 21, 2018 (GMT +0200)
Bilbao

Tiempo Historia de LEBB - Junio, 2018

Change the Weather History Date:

Jueves, Junio 14, 2018

  Actual Average Record
Temperature  
Temperatura media 68 ° F -  
Temperatura máxima 81 ° F 75 ° F 91 ° F (2002)
Temperatura mínima 54 ° F 58 ° F 50 ° F (1999)
Cooling Degree Days 2    
Growing Degree Days 18 (Base 50)    
Moisture  
Punto de rocío 56 ° F    
Average Humidity 76    
Maximum Humidity 100    
Minimum Humidity 47    
Precipitación  
Precipitación 0.00 pul - - ()
Presión al nivel del mar  
Presión al nivel del mar 30.15 pul    
Viento  
Velocidad del viento 4 mph ()    
Velocidad máxima del viento 9 mph    
Max Gust Speed -    
Visibilidad 7.1 Millas    
Eventos Lluvia    
Averages and records for this station are not official NWS values.
T = Trace of Precipitation, MM = Missing Value Source: Averaged Metar Reports

Daily Weather History Graph

Daily Weather History Graph

Search for Another Location

Airport or City:

Astronomía

Jun. 14, 2018 Salida Puesta
Hora real 6:30 AM CEST 9:53 PM CEST
Crepúsculo civil 5:55 AM CEST 10:28 PM CEST
Crepúsculo náutico 5:09 AM CEST 11:15 PM CEST
Crepúsculo astronómico 4:11 AM CEST 12:12 AM CEST
Luna 7:16 AM CEST (6/14) 10:37 PM CEST (6/14)
Horas de luz 16h 33m
Horas de luz
15h 22m
Luna nueva, 1% of the Moon is Illuminated
Jun 14
Luna nueva
Jun 20
Cuarto creciente
Jun 28
Luna llena
Jul 6
Cuarto menguante
Jul 13
Nueva

Hourly Weather History & Observations

Hora (CEST) Temp. Punto de rocío Humedad Presión Visibilidad Wind Dir Velocidad del viento Velocidad de ráfagas Precip Eventos Condiciones
12:00 AM 58 ° F 54 ° F 82% 30.22 pul - Este 1.2 mph - -  
12:00 AM 59.0 ° F 57.2 ° F 94% 30.21 pul 6.2 mi Variable 1.2 mph - N/A   Nubes dispersas
12:30 AM 57.2 ° F 55.4 ° F 94% 30.21 pul 6.2 mi SE 3.5 mph - N/A   Desconocido
1:00 AM 55 ° F 53 ° F 91% 30.21 pul - ESE 4.6 mph - -  
1:00 AM 57.2 ° F 55.4 ° F 94% 30.18 pul 6.2 mi ESE 3.5 mph - N/A   Desconocido
1:30 AM 57.2 ° F 55.4 ° F 94% 30.18 pul 6.2 mi ESE 4.6 mph - N/A   Desconocido
2:00 AM 56 ° F 54 ° F 90% 30.20 pul - Este 4.6 mph - -  
2:00 AM 57.2 ° F 55.4 ° F 94% 30.18 pul 6.2 mi Este 4.6 mph - N/A   Nubes dispersas
2:30 AM 57.2 ° F 55.4 ° F 94% 30.18 pul 5.6 mi ESE 4.6 mph - N/A   Nubes dispersas
3:00 AM 56 ° F 54 ° F 93% 30.18 pul - ESE 5.8 mph - -  
4:00 AM 57.2 ° F 55.4 ° F 94% 30.15 pul 6.2 mi ESE 3.5 mph - N/A Lluvia Lluvia débil
4:30 AM 57.2 ° F 55.4 ° F 94% 30.15 pul 5.6 mi ESE 3.5 mph - N/A   Muy nublado
5:00 AM 56 ° F 54 ° F 90% 30.17 pul 6 mi ESE 4.6 mph - - Lluvia Lluvia débil
5:00 AM 57.2 ° F 55.4 ° F 94% 30.15 pul 6.2 mi ESE 3.5 mph - N/A   Nubes dispersas
5:30 AM 55.4 ° F 55.4 ° F 100% 30.15 pul 6.2 mi ESE 3.5 mph - N/A   Parcialmente nublado
6:00 AM 55.4 ° F 53.6 ° F 94% 30.15 pul 6.2 mi Este 3.5 mph - N/A   Nubes dispersas
7:00 AM 55.4 ° F 55.4 ° F 100% 30.15 pul 6.2 mi Variable 2.3 mph - N/A   Nubes dispersas
7:30 AM 55.4 ° F 53.6 ° F 94% 30.15 pul 6.2 mi Variable 2.3 mph - N/A   Parcialmente nublado
8:00 AM 56 ° F 54 ° F 90% 30.16 pul 9 mi Este 4.6 mph - -   Parcialmente nublado
8:00 AM 57.2 ° F 55.4 ° F 94% 30.15 pul 6.2 mi Este 4.6 mph - N/A   Parcialmente nublado
8:30 AM 59.0 ° F 55.4 ° F 88% 30.15 pul 6.2 mi Este 3.5 mph - N/A   Nubes dispersas
9:00 AM 59 ° F 55 ° F 82% 30.17 pul - Este 2.3 mph - -  
9:00 AM 59.0 ° F 55.4 ° F 88% 30.15 pul 6.2 mi Variable 2.3 mph - N/A   Nubes dispersas
9:30 AM 60.8 ° F 57.2 ° F 88% 30.15 pul 6.2 mi Sin viento Sin viento - N/A   Muy nublado
10:00 AM 61 ° F 55 ° F 75% 30.17 pul - Sin viento Sin viento - -  
10:00 AM 60.8 ° F 57.2 ° F 88% 30.15 pul 6.2 mi Sin viento Sin viento - N/A   Muy nublado
10:30 AM 62.6 ° F 55.4 ° F 77% 30.15 pul 6.2 mi Variable 2.3 mph - N/A   Muy nublado
11:00 AM 63 ° F 56 ° F 72% 30.17 pul 12 mi ONO 4.6 mph - -   Nublado
11:00 AM 62.6 ° F 55.4 ° F 77% 30.15 pul 6.2 mi ONO 3.5 mph - N/A   Muy nublado
11:30 AM 64.4 ° F 55.4 ° F 73% 30.15 pul 6.2 mi NO 3.5 mph - N/A   Muy nublado
12:00 PM 66.2 ° F 53.6 ° F 64% 30.15 pul 6.2 mi NO 4.6 mph - N/A   Muy nublado
12:30 PM 66.2 ° F 53.6 ° F 64% 30.15 pul 6.2 mi ONO 4.6 mph - N/A   Muy nublado
1:00 PM 66 ° F 53 ° F 54% 30.17 pul - NNO 5.8 mph - -  
1:00 PM 66.2 ° F 55.4 ° F 68% 30.15 pul 6.2 mi NNO 5.8 mph - N/A   Muy nublado
1:30 PM 68.0 ° F 55.4 ° F 64% 30.15 pul 6.2 mi Variable 3.5 mph - N/A   Muy nublado
2:00 PM 67 ° F 54 ° F 53% 30.17 pul 16 mi NNO 6.9 mph - -   Muy nublado
2:00 PM 68.0 ° F 53.6 ° F 60% 30.15 pul 6.2 mi NNO 5.8 mph - N/A   Muy nublado
2:30 PM 68.0 ° F 55.4 ° F 64% 30.15 pul 6.2 mi NNO 6.9 mph - N/A   Nubes dispersas
3:00 PM 68 ° F 56 ° F 57% 30.15 pul - NNO 6.9 mph - -   Precipitación desconocida
3:00 PM 69.8 ° F 57.2 ° F 64% 30.15 pul 6.2 mi NNO 5.8 mph - N/A   Nubes dispersas
3:30 PM 69.8 ° F 55.4 ° F 60% 30.15 pul 6.2 mi ONO 9.2 mph - N/A   Nubes dispersas
4:00 PM 70 ° F 57 ° F 54% 30.14 pul - NO 6.9 mph - -  
4:00 PM 69.8 ° F 55.4 ° F 60% 30.12 pul 6.2 mi NO 6.9 mph - N/A   Parcialmente nublado
4:30 PM 69.8 ° F 55.4 ° F 60% 30.12 pul 6.2 mi NO 8.1 mph - N/A   Parcialmente nublado
5:00 PM 71 ° F 55 ° F 47% 30.14 pul 19 mi NO 6.9 mph - -   Nubes dispersas
5:00 PM 69.8 ° F 57.2 ° F 64% 30.12 pul 6.2 mi NO 6.9 mph - N/A   Parcialmente nublado
5:30 PM 69.8 ° F 57.2 ° F 64% 30.12 pul 6.2 mi NO 6.9 mph - N/A   Parcialmente nublado
6:00 PM 71 ° F 56 ° F 49% 30.13 pul - SO 3.5 mph - -  
6:00 PM 71.6 ° F 57.2 ° F 60% 30.12 pul 6.2 mi OSO 3.5 mph - N/A   Parcialmente nublado
6:30 PM 69.8 ° F 57.2 ° F 64% 30.12 pul 6.2 mi NO 4.6 mph - N/A   Parcialmente nublado
7:00 PM 70 ° F 55 ° F 50% 30.12 pul - NNO 9.2 mph - -  
7:00 PM 69.8 ° F 57.2 ° F 64% 30.12 pul 6.2 mi NNO 9.2 mph - N/A   Parcialmente nublado
7:30 PM 69.8 ° F 55.4 ° F 60% 30.12 pul 6.2 mi Norte 8.1 mph - N/A   Parcialmente nublado
8:00 PM 69 ° F 56 ° F 54% 30.13 pul 19 mi NO 5.8 mph - -   Nubes dispersas
8:30 PM 68.0 ° F 57.2 ° F 68% 30.12 pul 6.2 mi NNO 6.9 mph - N/A   Parcialmente nublado
9:00 PM 66 ° F 56 ° F 62% 30.14 pul - NNO 6.9 mph - -  
9:00 PM 66.2 ° F 57.2 ° F 73% 30.12 pul 6.2 mi NNO 5.8 mph - N/A   Parcialmente nublado
9:30 PM 64.4 ° F 57.2 ° F 77% 30.12 pul 6.2 mi Norte 5.8 mph - N/A   Parcialmente nublado
10:00 PM 64.4 ° F 57.2 ° F 77% 30.12 pul 6.2 mi NNO 5.8 mph - N/A   Parcialmente nublado
10:30 PM 62.6 ° F 57.2 ° F 82% 30.12 pul 6.2 mi NO 4.6 mph - N/A   Parcialmente nublado
11:00 PM 60 ° F 55 ° F 79% 30.16 pul 9 mi Oeste 2.3 mph - -   Nubes dispersas
11:00 PM 60.8 ° F 57.2 ° F 88% 30.15 pul 6.2 mi Variable 1.2 mph - N/A   Parcialmente nublado
11:30 PM 59.0 ° F 55.4 ° F 88% 30.15 pul 6.2 mi Sin viento Sin viento - N/A   Parcialmente nublado